Location: Powder Track
(41.8531°N, 72.3584°W)
Time: 08:48:59
(UTC+00:00)

Transit 4A - Pass Details

Date: 04 August 2021
Orbit: 871 x 974 km, 66.8° (Epoch: 20 September)

Event Time Altitude Azimuth Distance (km) Brightness Sun altitude
Rises 02:22:01 0° 160° (SSE) 3,496 - -21.1°
Reaches altitude 10° 02:25:29 10° 140° (SE) 2,544 - -21.5°
Maximum altitude 02:28:55 16° 104° (ESE) 2,129 - -21.9°
Exits shadow 02:31:26 13° 76° (ENE) 2,353 9.8 -22.2°
Drops below altitude 10° 02:32:20 10° 68° (ENE) 2,529 10.0 -22.3°
Sets 02:35:45 0° 48° (NE) 3,466 11.0 -22.7°
